SCP
0 0 0 0 0 0 0 0 0 -0 -0 -0 -0 0 0 0 0 0 0 0 0 0 0 0 0 0 0 0 0 0 0 0 0 0 0 0 0 0
0 0 0 0 0 0 0 0 0 0 -0 -0 -0 0 0 -0 0 0 0 0 0 0 0 0 0 0 0 0 0 0 0 0 0 0 0 0 0 0
0 0 0 0 0 0 0 0 0 0 0 -0 -0 0 0 0 0 0 0 0 0 0 0 0 0 0 0 0 0 0 0 0 0 0 0 0 0 0
-0 -0 -0 0 0 0 0 0 0 0 0 0 0 0 0 0 0 0 0 0 -0 0 0 0 0 0 0 0 0 0 0 0 0 0 0 0 0 0
-0 -0 -0 -0 -0 0 0 0 0 0 0 0 0 0 0 0 0 0 0 0 0 0 0 0 0 0 0 0 0 0 0 0 0 0 0 0 0 0
-0 -0 -0 -0 -0 -0 -0 0 0 0 0 0 0 0 0 0 0 0 0 0 0 0 0 0 0 0 0 0 0 0 0 0 0 0 0 0 0 0
-0 -0 -0 -0 -0 -0 -0 -0 -0 -0 0 0 0 0 0 0 0 0 0 0 0 0 0 0 0 0 0 0 0 0 0 0 0 0 0 0 0 0
0 -0 -0 -0 -0 -0 -0 -0 -0 -0 -0 0 0 0 0 0 0 0 0 0 0 0 0 0 0 0 -0 0 0 0 0 0 0 0 0 0 0 0
0 0 0 0 -0 -0 -0 -0 -0 -0 -0 -0 0 0 0 0 0 0 0 0 0 0 0 0 0 0 0 0 0 0 0 0 0 0 0 0 0 0
0 0 0 0 -0 -0 0 -0 -0 -0 -0 -0 -0 -0 0 0 0 0 0 -0 0 0 0 0 0 0 0 0 0 0 0 0 0 0 0 0 0 0
-0 -0 -0 -0 -0 -0 -0 -0 -0 -0 -0 -0 -0 -0 -0 -0 -0 0 0 0 0 0 0 0 0 0 0 0 0 0 0 0 0 0 0 0 0 0
-0 -0 -0 -0 -0 -0 -0 -0 -0 -0 -0 -0 -0 -0 -0 -0 -0 -0 0 0 0 0 0 0 0 0 0 0 0 0 0 0 0 0 0 0 0 0
-0 -0 -0 -0 -0 -0 -0 0 0 0 0 0 0 0 0 0 0 0 0 0 0 0 0 0 0 0 0 0 0 0 0 0 0 0 0 0 0 0
-0 -0 0 -0 -0 -0 0 -0 0 0 0 0 0 0 0 0 0 0 0 0 0 0 0 0 0 0 0 0 0 0 0 0 0 0 0 0 0 0
-0 0 0 0 0 0 0 0 0 0 -0 0 0 0 0 0 0 0 0 0 0 0 0 0 0 0 0 0 0 0 0 0 0 0 0 0 0 0
0 0 0 0 0 -0 -0 0 0 -0 -0 -0 -0 0 0 0 0 0 0 0 0 0 0 0 0 0 0 0 0 0 0 0 0 0 0 0 0 0
0 0 0 0 0 0 0 0 0 0 0 0 0 0 0 0 0 0 0 0 0 0 0 0 0 0 0 0 0 0 0 0 0 0 0 0 0 0
0 0 0 0 0 0 0 0 0 0 0 0 0 0 0 0 0 0 0 0 0 0 0 0 0 0 0 0 0 0 0 0 0 0 0 0 0 0
0 0 0 0 0 0 0 0 0 0 0 0 0 0 0 0 0 0 0 0 0 0 0 0 0 0 0 0 0 0 0 0 0 0 0 0 0 0
0 0 0 0 0 0 0 0 0 0 0 0 0 0 0 0 0 0 0 0 0 0 0 0 0 0 0 0 0 0 0 0 0 0 0 0 0 0
0 0 0 0 0 0 0 0 0 0 0 0 0 0 0 0 0 0 0 0 0 0 0 0 0 0 0 0 0 0 0 0 0 0 0 0 0 0
0 0 0 0 0 0 0 0 0 0 0 0 0 0 0 0 0 0 0 0 0 0 0 0 0 0 0 0 0 0 0 0 0 0 0 0 0 0
0 0 0 0 0 0 0 0 0 0 0 0 0 0 0 0 0 0 0 0 0 0 0 0 0 0 0 0 0 0 0 0 0 0 0 0 0 0
Wind_Speed_500mb
13 27 29 30 41 42 41 43 54 50 60 50 51 44 36 32 35 41 49 55 55 65 74 91 93 93 93 96 96 102 99 94 89 88 86 87 82 82
5 12 25 31 33 36 36 36 42 47 56 45 46 39 49 57 53 41 43 46 55 59 63 63 64 88 93 94 96 95 100 100 94 89 85 85 85 85
31 18 6 18 28 34 34 34 17 36 46 38 37 36 41 45 50 50 41 45 48 55 58 60 57 55 92 106 97 89 101 94 95 97 93 90 91 91
51 56 37 17 5 19 27 35 40 17 17 13 16 27 25 23 21 19 10 13 26 34 37 59 35 45 49 46 45 44 74 69 82 82 80 78 81 89
56 69 66 49 34 15 4 12 22 26 9 12 12 13 15 15 6 8 4 2 15 27 33 38 47 54 55 53 54 70 75 101 73 79 78 78 82 87
51 62 69 72 67 50 30 19 14 12 12 8 3 3 2 8 1 5 10 12 9 6 14 20 23 29 34 43 53 61 70 77 80 70 84 93 98 97
51 55 58 60 67 72 65 55 45 41 38 33 33 30 28 22 21 18 12 14 19 16 20 13 18 25 24 31 28 35 44 59 74 84 74 77 89 93
58 57 58 59 59 62 65 67 62 59 60 57 55 53 45 38 28 25 24 12 8 23 14 18 10 16 20 19 30 33 41 31 26 33 82 69 82 90
63 59 60 58 57 57 58 59 65 65 63 57 59 60 51 47 37 31 30 31 40 30 7 19 23 14 16 19 23 25 23 34 36 42 37 22 29 46
66 63 60 59 56 52 52 54 58 58 58 55 55 51 48 43 39 39 26 22 20 37 27 30 34 14 11 17 22 30 33 31 25 25 27 38 42 51
61 64 62 60 55 51 51 55 54 56 51 48 46 43 41 39 38 28 42 35 32 42 43 32 40 19 7 16 28 31 37 34 29 33 29 29 30 32
52 53 55 54 51 51 53 53 55 52 43 39 41 43 43 44 44 48 46 52 47 28 59 35 45 44 15 14 35 32 36 37 33 30 29 29 32 29
54 56 53 53 52 51 50 51 51 41 43 43 43 44 46 48 47 43 40 42 43 42 43 44 45 43 30 44 39 35 38 43 39 35 32 30 25 26
46 45 46 47 48 51 54 50 45 45 47 48 48 51 50 51 47 39 28 24 23 24 26 32 38 38 35 43 46 44 38 43 40 41 42 35 27 26
34 31 33 40 43 45 48 48 48 49 52 56 58 54 49 45 42 40 36 28 22 17 25 32 31 30 32 35 38 40 57 47 33 50 43 34 31 32
25 23 24 29 36 40 44 49 52 55 57 59 55 49 43 45 50 50 50 47 40 34 34 35 34 36 41 36 33 44 42 40 42 35 40 34 25 21
16 19 24 30 35 40 41 43 45 47 50 50 51 51 51 49 52 52 53 50 47 48 49 47 45 43 41 28 28 38 45 40 38 40 37 44 39 31
18 25 28 30 34 37 38 38 39 40 41 41 44 46 47 46 46 49 51 52 51 49 51 52 56 61 52 39 32 48 48 47 50 47 40 45 49 42
21 23 25 28 31 33 34 34 34 32 30 31 33 37 40 39 41 46 49 50 52 49 49 51 52 59 63 62 63 43 56 56 56 53 48 49 56 49
21 24 26 28 29 31 33 33 31 29 29 28 29 31 34 33 34 40 46 48 51 48 52 56 55 59 54 53 59 59 41 48 52 59 58 52 47 40
20 22 24 26 29 30 31 31 31 28 26 27 31 33 32 26 26 33 40 44 48 48 58 58 53 52 49 52 54 60 54 46 42 49 52 54 52 50
22 22 24 27 29 29 30 32 31 30 32 34 35 34 29 18 20 26 37 43 46 49 55 50 58 56 60 54 59 64 66 58 42 45 32 23 40 41
22 23 25 28 28 29 31 31 32 33 32 32 33 32 28 18 15 20 30 38 45 52 52 58 59 60 57 55 59 63 66 65 66 67 38 29 36 44
Wind_Direction_500mb
282 260 261 263 256 257 263 270 269 276 281 289 288 263 277 289 293 283 275 268 265 270 268 253 249 246 249 246 246 241 238 237 235 235 235 238 239 242
15 255 254 251 252 254 256 257 260 266 269 280 296 294 277 274 277 292 306 285 269 263 266 268 265 249 245 243 243 245 243 241 241 240 240 241 242 243
49 30 297 247 239 245 247 238 264 247 263 288 298 271 273 274 285 291 294 302 284 273 273 265 260 257 253 241 240 247 244 246 245 244 245 246 248 250
57 49 42 38 262 244 242 246 254 272 248 270 251 241 269 281 294 300 281 325 291 278 257 260 255 263 268 276 245 241 248 239 244 241 239 244 253 257
59 58 47 52 53 57 175 224 233 247 285 258 225 260 261 275 303 253 122 346 281 307 337 291 267 266 272 266 270 261 261 263 246 234 240 243 247 248
61 64 56 49 55 59 65 89 115 146 148 167 83 49 23 7 16 106 114 102 112 217 40 336 320 323 295 276 265 252 255 247 251 254 243 245 252 250
56 58 61 61 56 59 66 71 83 91 92 91 79 68 55 48 43 31 55 128 84 69 71 59 6 336 14 348 343 308 283 261 254 255 251 246 252 253
57 59 58 57 63 62 64 66 69 68 68 68 65 61 55 50 48 46 46 63 23 19 24 29 11 342 334 351 321 313 315 326 318 261 252 254 248 242
57 56 57 57 54 58 61 65 67 62 62 60 60 55 49 42 40 42 47 42 42 23 29 33 31 29 27 2 3 9 346 312 308 303 302 284 282 270
59 54 57 56 56 55 58 59 58 61 57 56 57 55 53 50 45 45 48 45 50 35 38 35 23 25 32 2 356 352 348 345 338 324 327 309 292 284
54 49 48 53 57 55 58 61 62 61 59 63 62 61 56 53 51 50 49 46 43 34 30 26 14 20 41 359 357 350 346 343 331 326 323 316 310 307
57 56 50 49 46 44 47 51 54 56 59 60 60 59 56 51 47 45 42 41 39 35 20 18 15 15 3 352 349 348 339 337 343 352 342 329 322 313
48 48 44 44 45 49 50 50 51 49 48 47 49 50 48 47 49 53 50 42 41 40 20 18 12 11 11 346 352 347 347 342 340 340 339 334 331 324
48 42 46 42 44 45 44 42 41 42 43 41 40 39 38 37 35 42 44 40 56 43 16 13 18 14 0 351 358 341 339 343 335 340 342 337 334 329
48 49 45 39 37 37 41 40 39 40 40 41 39 37 36 31 26 27 32 35 35 21 17 18 14 359 356 350 347 338 335 343 330 332 337 348 346 342
40 45 48 40 38 35 32 33 35 33 31 30 34 32 27 26 23 19 17 15 12 16 15 13 7 353 346 346 336 334 342 350 348 345 338 336 338 340
31 40 39 31 32 31 30 28 27 28 27 23 21 22 22 20 22 18 16 17 18 10 3 357 352 348 350 354 341 342 343 342 344 347 339 330 327 325
19 30 31 27 26 24 23 24 23 22 21 15 13 12 16 15 14 13 12 15 16 12 5 2 354 347 344 350 349 348 343 337 331 330 329 335 324 321
22 26 25 22 20 18 17 17 16 13 13 12 7 1 3 11 12 10 8 6 6 5 1 1 0 360 354 344 338 344 334 332 331 326 325 323 321 319
16 14 14 12 10 8 8 6 2 360 0 356 355 355 356 2 8 8 5 2 1 360 354 356 356 353 349 337 329 332 342 334 334 326 322 315 310 313
11 7 3 359 360 0 359 356 352 351 347 342 349 349 349 352 3 7 359 357 359 356 351 352 347 344 345 341 342 343 340 345 337 329 328 323 317 317
2 358 354 350 354 352 350 350 348 344 344 349 349 349 349 345 351 9 358 355 356 349 349 345 346 350 351 352 343 342 344 342 346 347 340 329 336 315
354 354 347 347 349 346 346 347 342 340 344 344 345 346 346 339 347 359 2 349 349 348 351 345 347 348 350 352 347 347 351 351 350 350 341 338 332 331
Wind_Speed_850mb
13 27 29 30 41 42 41 43 54 50 60 50 51 44 36 32 35 41 49 55 55 65 74 91 93 93 93 96 96 102 99 94 89 88 86 87 82 82
5 12 25 31 33 36 36 36 42 47 56 45 46 39 49 57 53 41 43 46 55 59 63 63 64 88 93 94 96 95 100 100 94 89 85 85 85 85
31 18 6 18 28 34 34 34 17 36 46 38 37 36 41 45 50 50 41 45 48 55 58 60 57 55 92 106 97 89 101 94 95 97 93 90 91 91
51 56 37 17 5 19 27 35 40 17 17 13 16 27 25 23 21 19 10 13 26 34 37 59 35 45 49 46 45 44 74 69 82 82 80 78 81 89
56 69 66 49 34 15 4 12 22 26 9 12 12 13 15 15 6 8 4 2 15 27 33 38 47 54 55 53 54 70 75 101 73 79 78 78 82 87
51 62 69 72 67 50 30 19 14 12 12 8 3 3 2 8 1 5 10 12 9 6 14 20 23 29 34 43 53 61 70 77 80 70 84 93 98 97
51 55 58 60 67 72 65 55 45 41 38 33 33 30 28 22 21 18 12 14 19 16 20 13 18 25 24 31 28 35 44 59 74 84 74 77 89 93
58 57 58 59 59 62 65 67 62 59 60 57 55 53 45 38 28 25 24 12 8 23 14 18 10 16 20 19 30 33 41 31 26 33 82 69 82 90
63 59 60 58 57 57 58 59 65 65 63 57 59 60 51 47 37 31 30 31 40 30 7 19 23 14 16 19 23 25 23 34 36 42 37 22 29 46
66 63 60 59 56 52 52 54 58 58 58 55 55 51 48 43 39 39 26 22 20 37 27 30 34 14 11 17 22 30 33 31 25 25 27 38 42 51
61 64 62 60 55 51 51 55 54 56 51 48 46 43 41 39 38 28 42 35 32 42 43 32 40 19 7 16 28 31 37 34 29 33 29 29 30 32
52 53 55 54 51 51 53 53 55 52 43 39 41 43 43 44 44 48 46 52 47 28 59 35 45 44 15 14 35 32 36 37 33 30 29 29 32 29
54 56 53 53 52 51 50 51 51 41 43 43 43 44 46 48 47 43 40 42 43 42 43 44 45 43 30 44 39 35 38 43 39 35 32 30 25 26
46 45 46 47 48 51 54 50 45 45 47 48 48 51 50 51 47 39 28 24 23 24 26 32 38 38 35 43 46 44 38 43 40 41 42 35 27 26
34 31 33 40 43 45 48 48 48 49 52 56 58 54 49 45 42 40 36 28 22 17 25 32 31 30 32 35 38 40 57 47 33 50 43 34 31 32
25 23 24 29 36 40 44 49 52 55 57 59 55 49 43 45 50 50 50 47 40 34 34 35 34 36 41 36 33 44 42 40 42 35 40 34 25 21
16 19 24 30 35 40 41 43 45 47 50 50 51 51 51 49 52 52 53 50 47 48 49 47 45 43 41 28 28 38 45 40 38 40 37 44 39 31
18 25 28 30 34 37 38 38 39 40 41 41 44 46 47 46 46 49 51 52 51 49 51 52 56 61 52 39 32 48 48 47 50 47 40 45 49 42
21 23 25 28 31 33 34 34 34 32 30 31 33 37 40 39 41 46 49 50 52 49 49 51 52 59 63 62 63 43 56 56 56 53 48 49 56 49
21 24 26 28 29 31 33 33 31 29 29 28 29 31 34 33 34 40 46 48 51 48 52 56 55 59 54 53 59 59 41 48 52 59 58 52 47 40
20 22 24 26 29 30 31 31 31 28 26 27 31 33 32 26 26 33 40 44 48 48 58 58 53 52 49 52 54 60 54 46 42 49 52 54 52 50
22 22 24 27 29 29 30 32 31 30 32 34 35 34 29 18 20 26 37 43 46 49 55 50 58 56 60 54 59 64 66 58 42 45 32 23 40 41
22 23 25 28 28 29 31 31 32 33 32 32 33 32 28 18 15 20 30 38 45 52 52 58 59 60 57 55 59 63 66 65 66 67 38 29 36 44
Wind_Direction_850mb
282 260 261 263 256 257 263 270 269 276 281 289 288 263 277 289 293 283 275 268 265 270 268 253 249 246 249 246 246 241 238 237 235 235 235 238 239 242
15 255 254 251 252 254 256 257 260 266 269 280 296 294 277 274 277 292 306 285 269 263 266 268 265 249 245 243 243 245 243 241 241 240 240 241 242 243
49 30 297 247 239 245 247 238 264 247 263 288 298 271 273 274 285 291 294 302 284 273 273 265 260 257 253 241 240 247 244 246 245 244 245 246 248 250
57 49 42 38 262 244 242 246 254 272 248 270 251 241 269 281 294 300 281 325 291 278 257 260 255 263 268 276 245 241 248 239 244 241 239 244 253 257
59 58 47 52 53 57 175 224 233 247 285 258 225 260 261 275 303 253 122 346 281 307 337 291 267 266 272 266 270 261 261 263 246 234 240 243 247 248
61 64 56 49 55 59 65 89 115 146 148 167 83 49 23 7 16 106 114 102 112 217 40 336 320 323 295 276 265 252 255 247 251 254 243 245 252 250
56 58 61 61 56 59 66 71 83 91 92 91 79 68 55 48 43 31 55 128 84 69 71 59 6 336 14 348 343 308 283 261 254 255 251 246 252 253
57 59 58 57 63 62 64 66 69 68 68 68 65 61 55 50 48 46 46 63 23 19 24 29 11 342 334 351 321 313 315 326 318 261 252 254 248 242
57 56 57 57 54 58 61 65 67 62 62 60 60 55 49 42 40 42 47 42 42 23 29 33 31 29 27 2 3 9 346 312 308 303 302 284 282 270
59 54 57 56 56 55 58 59 58 61 57 56 57 55 53 50 45 45 48 45 50 35 38 35 23 25 32 2 356 352 348 345 338 324 327 309 292 284
54 49 48 53 57 55 58 61 62 61 59 63 62 61 56 53 51 50 49 46 43 34 30 26 14 20 41 359 357 350 346 343 331 326 323 316 310 307
57 56 50 49 46 44 47 51 54 56 59 60 60 59 56 51 47 45 42 41 39 35 20 18 15 15 3 352 349 348 339 337 343 352 342 329 322 313
48 48 44 44 45 49 50 50 51 49 48 47 49 50 48 47 49 53 50 42 41 40 20 18 12 11 11 346 352 347 347 342 340 340 339 334 331 324
48 42 46 42 44 45 44 42 41 42 43 41 40 39 38 37 35 42 44 40 56 43 16 13 18 14 0 351 358 341 339 343 335 340 342 337 334 329
48 49 45 39 37 37 41 40 39 40 40 41 39 37 36 31 26 27 32 35 35 21 17 18 14 359 356 350 347 338 335 343 330 332 337 348 346 342
40 45 48 40 38 35 32 33 35 33 31 30 34 32 27 26 23 19 17 15 12 16 15 13 7 353 346 346 336 334 342 350 348 345 338 336 338 340
31 40 39 31 32 31 30 28 27 28 27 23 21 22 22 20 22 18 16 17 18 10 3 357 352 348 350 354 341 342 343 342 344 347 339 330 327 325
19 30 31 27 26 24 23 24 23 22 21 15 13 12 16 15 14 13 12 15 16 12 5 2 354 347 344 350 349 348 343 337 331 330 329 335 324 321
22 26 25 22 20 18 17 17 16 13 13 12 7 1 3 11 12 10 8 6 6 5 1 1 0 360 354 344 338 344 334 332 331 326 325 323 321 319
16 14 14 12 10 8 8 6 2 360 0 356 355 355 356 2 8 8 5 2 1 360 354 356 356 353 349 337 329 332 342 334 334 326 322 315 310 313
11 7 3 359 360 0 359 356 352 351 347 342 349 349 349 352 3 7 359 357 359 356 351 352 347 344 345 341 342 343 340 345 337 329 328 323 317 317
2 358 354 350 354 352 350 350 348 344 344 349 349 349 349 345 351 9 358 355 356 349 349 345 346 350 351 352 343 342 344 342 346 347 340 329 336 315
354 354 347 347 349 346 346 347 342 340 344 344 345 346 346 339 347 359 2 349 349 348 351 345 347 348 350 352 347 347 351 351 350 350 341 338 332 331